Tracking 29892 objects as of 21-Nov-2024
HD Live streaming from Space Station
objects crossing your sky now

ONEWEB-0428

Track ONEWEB-0428 now!
10-day predictions
ONEWEB-0428 is classified as:


NORAD ID: 51629
Int'l Code: 2022-012H
Perigee: 1,227.7 km
Apogee: 1,229.9 km
Inclination: 87.9 °
Period: 109.9 minutes
Semi major axis: 7599 km
RCS: Unknown
Launch date: February 10, 2022
Source: United Kingdom (UK)
Launch site: FRENCH GUIANA (FRGUI)
Your satellite tracking list
Your tracking list is empty




NASA's NSSDC Master Catalog

Two Line Element Set (TLE):
1 51629U 22012H   24325.49015256 -.00000187  00000-0 -57262-3 0  9991
2 51629  87.8893 150.5181 0001443  77.1323 282.9965 13.10379206134151
Source of the keplerian elements: AFSPC